EHI
67 71 72 75 81 87 90 90 86 78 70 62 53 47 39 23 15 21 28 23 14 11 8 6 7 5 3 4 4 5 6 9 13 15 14 15 22 30 34 34 34 30 26
71 74 76 79 82 86 88 85 80 73 66 59 50 44 35 21 14 19 25 21 14 10 8 7 5 4 3 2 3 4 4 5 8 10 11 12 17 22 26 31 34 33 32
73 74 75 77 81 84 83 80 77 71 63 54 45 40 34 24 19 22 27 25 17 10 9 7 5 4 3 1 1 2 2 1 2 5 6 8 10 11 15 20 26 32 36
67 69 69 69 73 75 75 75 76 73 64 56 50 48 44 39 37 37 38 34 23 13 10 10 9 7 4 2 2 2 1 0 0 1 2 4 4 4 6 8 14 24 30
58 62 62 60 59 60 63 67 73 74 70 66 63 62 61 59 59 57 51 42 30 18 11 13 15 13 8 4 3 2 1 0 0 0 0 1 1 1 1 2 7 14 19
50 50 50 48 46 48 54 61 69 74 74 74 73 74 75 74 73 69 61 49 38 28 21 21 24 19 11 6 3 1 0 0 0 0 0 0 0 0 0 0 2 6 8
38 35 33 32 33 37 46 55 63 69 72 74 77 80 80 79 77 75 69 61 51 44 40 36 30 21 12 6 3 1 0 0 0 0 0 0 0 0 0 0 1 1 1
22 20 17 17 18 21 27 36 44 51 55 60 67 70 71 72 74 74 72 69 63 57 54 44 31 21 12 5 2 1 0 0 0 0 0 0 0 0 0 1 1 1 1
9 8 7 6 6 7 9 13 19 25 28 32 39 42 46 52 56 59 61 63 61 58 54 44 32 22 14 7 3 1 0 0 0 0 0 0 0 0 1 2 3 2 2
2 1 1 1 1 1 1 1 3 6 7 10 13 15 19 25 30 34 40 43 45 46 44 39 31 24 16 10 5 2 1 0 0 0 0 0 0 0 1 3 4 4 3
0 0 0 0 0 0 0 0 0 0 1 1 2 3 4 6 9 13 16 19 24 29 30 28 25 19 12 8 5 3 1 0 0 0 0 0 0 0 1 2 4 5 5
0 0 0 0 0 0 0 0 0 0 0 0 0 1 1 1 1 2 3 4 8 13 16 17 15 11 7 5 3 2 1 0 0 0 0 0 0 0 1 2 3 4 5
0 0 0 0 0 0 0 0 0 0 0 0 0 0 0 0 0 0 0 0 1 3 5 7 7 6 5 4 2 0 0 0 0 0 0 0 0 0 0 1 1 2 2
0 0 0 0 0 0 0 0 0 0 0 0 0 0 0 0 0 0 0 0 0 0 1 1 2 3 3 2 1 0 0 0 0 0 0 0 0 0 0 0 0 0 0
0 0 0 0 0 0 0 0 0 0 0 0 0 0 0 0 0 0 0 0 0 0 0 0 0 1 1 1 0 0 0 0 0 0 0 0 0 0 0 0 0 0 0
0 0 0 0 0 0 0 0 0 0 0 0 0 0 0 0 0 0 0 0 0 0 0 0 0 0 0 0 0 0 0 0 0 0 0 0 0 0 0 0 0 0 0
0 0 0 0 0 0 0 0 0 0 0 0 0 0 0 0 0 0 0 0 0 0 0 0 0 0 0 0 0 0 0 0 0 0 0 0 0 0 0 0 0 0 0
0 0 0 0 0 0 0 0 0 0 0 0 0 0 0 0 0 0 0 0 0 0 0 0 0 0 0 0 0 0 0 0 0 0 0 0 0 0 0 0 0 0 0
0 0 0 0 0 0 0 0 0 0 0 0 0 0 0 0 0 0 0 0 0 0 0 0 0 0 0 0 0 0 0 0 0 0 0 0 0 0 0 0 0 0 0
0 0 0 0 0 0 0 0 0 0 0 0 0 0 0 0 0 0 0 0 0 0 0 0 0 0 0 0 0 0 0 0 0 0 0 0 0 0 0 0 0 0 0
0 0 0 0 0 0 0 0 0 0 0 0 0 0 0 0 0 0 0 0 0 0 0 0 0 0 0 0 0 0 0 0 0 0 0 0 0 0 0 0 0 0 0
0 0 0 0 0 0 0 0 0 0 0 0 0 0 0 0 0 0 0 0 0 0 0 0 0 0 0 0 0 0 0 0 0 0 0 0 0 0 0 0 0 0 0
0 0 0 0 0 0 0 0 0 0 0 0 0 0 0 0 0 0 0 0 0 0 0 0 0 0 0 0 0 0 0 0 0 0 0 0 0 0 0 0 0 0 0
0 0 0 0 0 0 0 0 0 0 0 0 0 0 0 0 0 0 0 0 0 0 0 0 0 0 0 0 0 0 0 0 0 0 0 0 0 0 0 0 0 0 0
0 0 0 0 0 0 0 0 0 0 0 0 0 0 0 0 0 0 0 0 0 0 0 0 0 0 0 0 0 0 0 0 0 0 0 0 0 0 0 0 0 0 0
0 0 0 0 0 0 0 0 0 0 0 0 0 0 0 0 0 0 0 0 0 0 0 0 0 0 0 0 0 0 0 0 0 0 0 0 0 0 0 0 0 0 0
Wind_Speed
7 6 6 6 8 7 7 7 8 6 4 3 4 3 2 1 1 2 4 3 2 3 2 3 4 4 4 5 5 5 5 5 4 4 5 6 8 9 8 8 8 9 10
5 6 3 5 7 8 8 7 7 7 5 3 2 1 2 1 1 2 3 2 2 2 3 3 3 4 4 5 5 4 4 5 4 3 4 4 4 6 9 8 9 10 8
5 7 5 4 4 5 6 7 6 6 4 4 2 1 1 1 1 2 2 3 1 1 1 2 2 3 4 4 5 5 5 5 5 4 3 4 4 4 3 5 6 7 6
8 8 7 6 6 5 4 3 5 4 4 3 1 1 1 1 0 1 1 2 1 2 2 2 2 2 3 5 5 5 5 6 6 5 4 5 5 5 4 4 4 5 6
12 12 10 9 7 6 5 3 3 3 3 1 1 1 2 3 1 1 1 0 3 3 4 2 1 2 3 4 4 5 5 5 6 6 5 6 5 6 6 7 5 3 3
14 14 13 13 13 11 8 5 4 3 3 2 2 2 3 4 4 4 3 3 3 3 3 1 0 2 3 4 4 5 6 6 6 6 6 6 5 5 5 6 6 5 4
15 15 15 14 14 13 12 11 10 8 6 5 5 4 4 4 4 5 5 4 3 3 1 1 0 3 4 4 5 5 6 6 7 6 6 6 6 6 6 6 6 5 4
14 13 14 13 13 13 13 13 12 11 10 9 8 7 7 5 4 5 6 5 5 5 3 2 3 4 5 6 5 5 6 6 6 8 7 6 6 6 6 6 5 5 4
12 11 11 11 10 11 11 11 10 9 10 10 9 7 8 7 7 7 6 6 6 7 7 5 5 5 5 5 6 5 6 6 6 7 7 6 6 6 6 5 5 4 4
9 9 8 8 7 7 6 7 7 7 7 7 7 7 7 7 7 7 8 7 7 7 8 7 7 6 6 6 5 6 6 6 6 6 7 7 6 5 5 5 5 5 5
8 7 6 6 6 6 6 5 5 5 5 5 5 5 5 6 6 5 6 7 7 8 8 8 8 8 7 6 5 6 7 6 6 6 6 7 7 5 5 5 5 5 5
7 7 8 7 7 8 8 7 7 7 6 6 6 6 6 6 6 6 6 7 8 8 9 8 8 9 9 7 6 7 7 6 6 6 6 7 6 6 5 4 5 5 5
8 8 8 8 8 8 8 8 8 8 8 7 7 6 7 6 7 7 7 7 7 8 9 9 9 9 9 8 8 7 6 6 5 5 5 6 6 6 4 4 4 3 4
10 9 8 8 8 8 9 9 9 9 9 8 8 8 9 9 9 9 9 8 8 8 8 9 9 9 9 10 9 7 6 5 4 3 3 4 5 4 4 3 2 2 4
14 11 9 8 9 9 9 9 10 9 9 9 9 9 10 10 10 10 10 9 9 10 8 8 9 9 9 9 7 6 7 4 3 2 2 2 3 4 3 2 1 3 4
12 10 11 10 9 9 9 9 8 8 8 9 10 9 9 10 10 10 10 10 10 9 9 8 8 9 9 7 7 6 6 4 3 3 1 1 0 2 3 4 4 4 6
13 13 13 11 9 10 8 9 8 8 8 9 9 9 9 10 10 11 10 9 9 9 9 8 8 8 8 8 7 8 6 5 4 3 2 2 2 2 3 6 8 8 8
18 16 14 13 12 10 9 9 11 9 9 9 10 10 9 10 9 9 9 8 7 8 7 8 8 8 9 8 7 7 7 6 4 4 4 4 4 3 4 6 7 8 7
16 14 15 16 12 12 11 11 11 12 12 12 10 10 9 9 9 9 8 7 7 7 7 8 9 8 7 6 7 6 4 4 4 4 5 6 6 6 8 9 10 10 8
15 15 16 16 13 11 10 11 14 13 12 12 10 10 9 9 10 9 8 8 7 7 8 9 8 8 7 5 7 7 3 4 3 4 5 8 9 9 8 8 9 10 8
16 15 14 12 10 11 10 12 13 13 12 11 10 9 9 9 10 9 8 8 8 9 8 9 8 7 7 5 7 8 4 3 3 3 4 6 12 10 8 7 7 10 9
18 18 13 11 10 10 11 12 12 11 11 11 11 10 10 12 12 8 7 7 7 8 8 8 9 7 5 5 6 8 7 3 2 2 3 7 13 11 9 8 11 13 10
16 15 16 14 11 11 11 13 13 12 12 12 12 11 12 10 10 10 9 9 8 8 9 7 7 6 4 4 6 7 6 5 2 1 3 8 13 11 8 11 13 10 5
16 16 16 16 14 12 13 13 13 12 12 13 12 11 11 12 11 8 8 8 8 8 7 6 5 4 3 3 4 4 4 4 3 2 6 11 12 8 9 9 7 5 4
16 15 15 16 17 15 14 15 14 13 13 13 12 12 11 11 10 9 8 9 8 7 6 5 4 3 3 3 5 3 3 3 3 4 5 7 7 7 7 6 5 4 4
17 17 18 18 18 17 17 16 14 14 13 12 12 10 9 8 8 8 9 11 11 10 9 8 5 2 4 9 8 6 4 4 5 6 7 8 8 9 8 7 6 5 5
Wind_Direction
160 140 146 149 140 130 131 136 137 137 151 160 179 181 167 180 172 132 104 90 44 35 354 325 351 324 319 329 315 303 300 292 278 275 275 260 244 236 232 233 236 235 233
110 115 114 125 133 134 130 129 139 155 166 137 128 136 128 200 182 101 109 105 70 24 324 24 334 334 332 306 302 314 301 296 299 292 292 285 265 241 237 226 229 234 233
108 108 97 83 92 111 136 148 148 153 151 141 178 165 155 234 194 131 141 121 86 284 306 317 311 324 307 313 331 308 308 308 303 278 269 282 287 316 276 254 244 234 228
58 62 68 75 80 83 83 101 127 137 138 155 197 228 240 263 182 165 130 115 220 242 238 245 275 306 306 306 309 346 331 310 301 295 271 260 278 288 295 288 268 252 235
58 54 48 54 59 69 79 80 111 137 148 163 357 325 299 303 332 19 68 251 250 231 229 223 247 300 291 304 320 311 302 296 291 294 296 292 281 263 265 280 279 273 253
63 55 47 42 41 39 43 48 62 55 39 18 338 303 308 322 329 325 308 280 267 246 226 216 144 292 293 309 302 293 290 286 288 286 283 280 277 276 268 269 275 270 263
58 53 46 40 41 37 31 33 39 34 18 11 359 352 346 328 306 295 292 290 290 286 318 16 337 284 286 281 277 282 283 282 280 278 275 273 272 273 273 273 273 273 273
62 57 51 45 40 37 32 30 28 27 20 16 12 8 5 351 342 342 335 324 315 315 337 316 281 274 275 282 286 289 283 282 283 282 278 273 269 265 263 263 269 275 267
62 58 54 47 41 37 36 28 25 24 19 12 5 16 15 5 354 344 333 328 329 321 328 320 298 282 277 277 281 280 284 285 281 281 280 276 272 266 260 255 243 240 251
52 51 50 47 40 33 33 29 20 15 11 8 2 2 0 358 351 344 341 334 328 322 314 306 298 287 278 274 274 280 282 288 286 280 277 276 274 270 265 256 243 228 226
23 21 21 19 12 8 4 2 358 352 347 343 343 339 339 341 336 332 333 332 324 316 307 302 296 289 281 273 270 275 280 287 293 293 292 289 282 272 266 258 243 234 220
348 344 343 344 345 345 344 339 335 328 325 325 324 322 323 322 317 315 318 319 317 315 308 297 292 289 285 279 273 275 283 290 296 299 300 301 299 291 276 259 246 233 213
321 321 325 325 324 322 318 312 307 303 302 301 298 296 294 294 293 292 294 297 298 301 305 304 294 290 288 283 276 270 273 280 287 299 304 304 305 299 290 271 249 226 197
308 306 303 294 293 290 285 283 281 276 274 271 270 269 268 267 268 271 272 275 277 282 288 294 297 294 290 283 276 272 270 271 278 291 300 306 310 305 296 276 248 185 158
307 306 302 291 280 276 273 272 269 267 265 265 263 260 259 259 259 261 262 263 266 273 275 284 293 294 288 283 287 278 271 266 269 280 296 335 352 357 338 290 208 156 141
317 319 309 300 296 294 292 289 285 279 273 270 270 268 263 262 260 259 258 258 259 262 264 269 281 287 289 310 312 295 285 278 262 257 228 168 97 61 57 60 79 127 142
331 318 312 310 308 304 297 292 292 288 283 279 279 276 272 269 264 266 265 259 260 264 268 270 274 276 281 279 271 273 275 267 254 229 194 192 143 145 113 91 83 80 96
321 317 313 310 304 301 297 292 293 288 284 282 281 280 280 279 276 272 271 270 270 272 275 275 274 275 281 273 253 263 268 263 249 215 181 161 151 152 132 111 92 79 75
315 313 310 307 302 297 293 290 289 288 284 283 279 279 278 279 278 278 277 277 275 276 273 273 267 269 273 261 243 240 259 256 238 206 177 161 152 143 132 119 108 98 86
313 308 305 302 298 295 293 289 289 286 283 282 277 276 274 275 275 274 275 277 275 272 271 268 264 266 268 247 225 220 238 250 236 199 172 161 147 144 138 131 125 118 115
309 306 303 300 298 296 291 288 288 285 283 281 276 273 271 270 269 264 262 264 267 271 273 274 270 262 261 239 223 212 221 228 230 193 173 155 148 147 141 136 129 130 129
309 309 306 301 297 298 297 294 292 292 291 289 286 281 277 277 279 273 270 266 264 267 266 262 264 259 249 228 209 205 208 215 213 201 173 154 153 147 143 137 139 143 140
313 314 312 308 306 305 302 299 298 297 293 288 284 282 281 278 275 272 270 267 260 257 260 258 257 250 227 181 181 188 186 194 191 210 176 158 156 145 137 143 150 155 153
318 317 313 310 308 307 303 297 295 292 287 284 283 281 278 274 270 265 263 262 260 258 255 255 257 249 213 178 171 176 166 175 170 175 157 158 161 154 141 151 164 176 170
318 318 315 311 308 306 302 300 297 291 286 284 282 279 274 272 268 264 257 256 254 249 247 253 247 229 210 167 156 164 157 161 157 145 151 163 165 159 154 163 177 182 160
322 319 315 312 310 307 303 299 296 291 286 283 280 274 269 267 266 265 267 255 247 249 238 230 229 207 153 146 150 152 139 132 143 151 171 172 172 166 164 170 174 172 152